TimeEDT,TemperatureF,Dew PointF,Humidity,Sea Level PressureIn,VisibilityMPH,Wind Direction,Wind SpeedMPH,Gust SpeedMPH,PrecipitationIn,Events,Conditions,WindDirDegrees,DateUTC
12:51 AM,52.0,39.9,63,29.82,10.0,Calm,Calm,-,0.00,,Overcast,0,2012-04-26 04:51:00
1:51 AM,51.1,43.0,74,29.81,10.0,West,3.5,-,0.00,Rain,Light Rain,260,2012-04-26 05:51:00
2:51 AM,51.1,43.0,74,29.78,10.0,Calm,Calm,-,0.00,,Overcast,0,2012-04-26 06:51:00
3:51 AM,51.1,41.0,68,29.73,10.0,East,4.6,-,N/A,,Overcast,100,2012-04-26 07:51:00
4:51 AM,52.0,39.9,63,29.73,10.0,SE,3.5,-,N/A,,Overcast,130,2012-04-26 08:51:00
5:51 AM,51.1,41.0,68,29.72,10.0,ESE,4.6,-,N/A,,Mostly Cloudy,120,2012-04-26 09:51:00
6:51 AM,51.1,39.9,66,29.70,10.0,East,4.6,-,0.00,,Overcast,80,2012-04-26 10:51:00
7:51 AM,51.8,42.8,71,29.69,10.0,SSE,3.5,-,N/A,,Overcast,160,2012-04-26 11:51:00
8:04 AM,51.8,41.0,67,29.69,10.0,SSE,5.8,-,N/A,,Overcast,150,2012-04-26 12:04:00
8:51 AM,53.1,42.1,66,29.71,10.0,Calm,Calm,-,N/A,,Overcast,0,2012-04-26 12:51:00
9:04 AM,53.6,42.8,67,29.68,10.0,South,4.6,-,N/A,,Overcast,170,2012-04-26 13:04:00
9:43 AM,53.6,44.6,72,29.66,10.0,SSW,3.5,-,0.00,Rain,Light Rain,210,2012-04-26 13:43:00
9:51 AM,55.0,44.1,67,29.68,10.0,Calm,Calm,-,0.00,,Overcast,0,2012-04-26 13:51:00
10:51 AM,57.9,50.0,75,29.66,10.0,SW,5.8,-,N/A,,Mostly Cloudy,220,2012-04-26 14:51:00
11:51 AM,60.1,52.0,75,29.66,10.0,SSW,9.2,-,N/A,,Overcast,200,2012-04-26 15:51:00
12:45 PM,62.6,51.8,68,29.64,10.0,SSW,11.5,18.4,N/A,,Overcast,210,2012-04-26 16:45:00
12:51 PM,63.0,52.0,67,29.65,10.0,SW,11.5,19.6,N/A,,Overcast,220,2012-04-26 16:51:00
1:51 PM,61.0,55.0,81,29.67,10.0,WSW,4.6,-,0.03,,Overcast,250,2012-04-26 17:51:00
2:11 PM,62.6,55.4,77,29.64,10.0,SW,6.9,-,N/A,,Overcast,220,2012-04-26 18:11:00
2:51 PM,64.9,55.9,73,29.65,10.0,WSW,6.9,-,N/A,,Overcast,250,2012-04-26 18:51:00
3:51 PM,66.0,55.0,68,29.63,10.0,WSW,11.5,19.6,N/A,,Overcast,240,2012-04-26 19:51:00
4:51 PM,62.1,57.9,86,29.66,10.0,West,15.0,24.2,0.00,Rain,Light Rain,270,2012-04-26 20:51:00
5:18 PM,60.8,57.2,88,29.65,4.0,WNW,23.0,28.8,0.01,Rain,Light Rain,300,2012-04-26 21:18:00
5:51 PM,55.9,52.0,87,29.71,8.0,NW,25.3,36.8,0.01,Rain,Light Rain,320,2012-04-26 21:51:00
6:51 PM,53.1,46.9,80,29.77,8.0,NW,18.4,25.3,0.00,,Overcast,320,2012-04-26 22:51:00
7:51 PM,48.0,45.0,89,29.84,6.0,North,23.0,32.2,0.00,Rain,Light Rain,350,2012-04-26 23:51:00
8:51 PM,46.0,37.9,73,29.88,10.0,NW,12.7,21.9,0.00,,Overcast,320,2012-04-27 00:51:00
9:51 PM,46.0,37.0,71,29.92,10.0,NW,9.2,-,N/A,,Overcast,310,2012-04-27 01:51:00
10:51 PM,45.0,36.0,71,29.94,10.0,NW,9.2,-,N/A,,Mostly Cloudy,310,2012-04-27 02:51:00
11:51 PM,43.0,35.1,74,29.94,10.0,NW,8.1,-,N/A,,Partly Cloudy,320,2012-04-27 03:51:00